Alta Lufthavn, Norway

10:17 PM CEST on June 25, 2018 (GMT +0200)
Alta

Weather History for ENAT - October, 2016

Change the Weather History Date:

Friday, October 21, 2016

  Actual Average Record
Temperature  
Mean Temperature 40 °F -  
Max Temperature 42 °F 32 °F 51 °F (2007)
Min Temperature 37 °F 24 °F 12 °F (2002)
Degree Days  
Heating Degree Days 26    
Moisture  
Dew Point 31 °F    
Average Humidity 68    
Maximum Humidity 81    
Minimum Humidity 55    
Precipitation  
Precipitation 0.00 in - - ()
Sea Level Pressure  
Sea Level Pressure 30.54 in    
Wind  
Wind Speed 9 mph ()    
Max Wind Speed 16 mph    
Max Gust Speed -    
Visibility 6.2 miles    
Events      
Averages and records for this station are not official NWS values.
T = Trace of Precipitation, MM = Missing Value Source: Averaged Metar Reports

Daily Weather History Graph

Daily Weather History Graph

Search for Another Location

Airport or City:

Astronomy

Oct. 21, 2016 Rise Set
Actual Time 8:06 AM CEST 4:13 PM CEST
Civil Twilight 7:00 AM CEST 5:19 PM CEST
Nautical Twilight 5:49 AM CEST 6:30 PM CEST
Astronomical Twilight 4:38 AM CEST 7:41 PM CEST
Moon 7:08 PM CEST (10/21) 3:39 PM CEST (10/21)
Length of Visible Light 10h 18m
Length of Day
8h 07m
Waning Gibbous, 65% of the Moon is Illuminated
Oct 21
Waning Gibbous
Oct 22
Last Quarter
Oct 30
New
Nov 7
First Quarter
Nov 14
Full

Hourly Weather History & Observations

Time (CEST) Temp. Windchill Dew Point Humidity Pressure Visibility Wind Dir Wind Speed Gust Speed Precip Events Conditions
12:00 AM 39 °F - 32 °F 68% 30.52 in - SE 8.9 mph - -  
12:50 AM 39.2 °F 32.5 °F 32.0 °F 75% 30.51 in - SSE 10.4 mph - N/A   Clear
1:00 AM 38 °F - 32 °F 71% 30.52 in - SE 11.2 mph - -  
1:50 AM 39.2 °F 33.0 °F 32.0 °F 75% 30.51 in - SSE 9.2 mph - N/A   Clear
2:00 AM 38 °F - 32 °F 71% 30.52 in - SE 8.9 mph - -  
2:50 AM 37.4 °F 31.4 °F 32.0 °F 81% 30.51 in - SSE 8.1 mph - N/A   Clear
3:00 AM 38 °F - 32 °F 73% 30.52 in - SE 8.9 mph - -  
3:50 AM 39.2 °F 32.5 °F 32.0 °F 75% 30.51 in 6.2 mi SSE 10.4 mph - N/A   Unknown
4:00 AM 40 °F - 33 °F 67% 30.52 in - SSE 11.2 mph - -  
4:50 AM 39.2 °F 32.0 °F 32.0 °F 75% 30.51 in 6.2 mi SSE 11.5 mph - N/A   Unknown
5:00 AM 39 °F - 31 °F 65% 30.51 in - SSE 8.9 mph - -  
5:50 AM 39.2 °F 32.5 °F 32.0 °F 75% 30.51 in 6.2 mi SSE 10.4 mph - N/A   Unknown
6:00 AM 39 °F - 31 °F 64% 30.52 in - SE 11.2 mph - -  
6:50 AM 39.2 °F 33.0 °F 30.2 °F 70% 30.51 in - SE 9.2 mph - N/A   Clear
7:00 AM 38 °F - 30 °F 65% 30.52 in - SE 11.2 mph - -  
7:50 AM 39.2 °F 32.0 °F 30.2 °F 70% 30.51 in - SSE 11.5 mph - N/A   Clear
8:00 AM 38 °F - 30 °F 64% 30.53 in - SE 8.9 mph - -  
8:50 AM 37.4 °F 29.3 °F 30.2 °F 75% 30.54 in - SSE 12.7 mph - N/A   Clear
9:00 AM 38 °F - 29 °F 62% 30.54 in - SSE 13.4 mph - -  
9:50 AM 39.2 °F 32.5 °F 30.2 °F 70% 30.54 in - SSE 10.4 mph - N/A   Clear
10:00 AM 39 °F - 29 °F 58% 30.55 in - SSE 13.4 mph - -  
10:50 AM 39.2 °F 32.0 °F 30.2 °F 70% 30.54 in - SSE 11.5 mph - N/A   Clear
11:00 AM 40 °F - 29 °F 55% 30.55 in - SE 11.2 mph - -  
11:50 AM 39.2 °F 33.6 °F 30.2 °F 70% 30.54 in - SE 8.1 mph - N/A   Clear
12:00 PM 40 °F - 30 °F 58% 30.55 in - SE 11.2 mph - -  
12:50 PM 41.0 °F 36.4 °F 32.0 °F 70% 30.54 in - SE 6.9 mph - N/A   Clear
1:00 PM 42 °F - 31 °F 56% 30.54 in - SE 6.7 mph - -  
1:50 PM 41.0 °F 34.7 °F 32.0 °F 70% 30.51 in - SE 10.4 mph - N/A   Clear
2:00 PM 42 °F - 32 °F 56% 30.53 in - SE 11.2 mph - -  
2:50 PM 41.0 °F 34.3 °F 32.0 °F 70% 30.51 in - SSE 11.5 mph - N/A   Clear
3:00 PM 40 °F - 32 °F 63% 30.54 in - SE 8.9 mph - -  
3:50 PM 39.2 °F 33.0 °F 32.0 °F 75% 30.54 in - SE 9.2 mph - N/A   Clear
4:00 PM 40 °F - 32 °F 64% 30.54 in - SE 11.2 mph - -  
4:50 PM 39.2 °F 31.6 °F 32.0 °F 75% 30.54 in - SSE 12.7 mph - N/A   Clear
5:00 PM 39 °F - 31 °F 65% 30.55 in - SE 15.7 mph - -  
5:50 PM 39.2 °F 31.6 °F 32.0 °F 75% 30.54 in - SSE 12.7 mph - N/A   Clear
6:00 PM 39 °F - 31 °F 65% 30.56 in - SE 13.4 mph - -  
6:50 PM 39.2 °F 31.6 °F 32.0 °F 75% 30.54 in - SSE 12.7 mph - N/A   Clear
7:00 PM 39 °F - 31 °F 65% 30.57 in - SSE 13.4 mph - -  
7:50 PM 39.2 °F 33.0 °F 32.0 °F 75% 30.57 in - SSE 9.2 mph - N/A   Clear
8:00 PM 40 °F - 31 °F 59% 30.57 in - SSE 11.2 mph - -  
8:50 PM 39.2 °F 35.0 °F 30.2 °F 70% 30.57 in - South 5.8 mph - N/A   Clear
9:00 PM 39 °F - 30 °F 61% 30.58 in - SSE 8.9 mph - -  
9:50 PM 39.2 °F 33.0 °F 30.2 °F 70% 30.57 in - SSE 9.2 mph - N/A   Clear
10:00 PM 39 °F - 30 °F 61% 30.59 in - SSE 6.7 mph - -  
10:50 PM 39.2 °F 33.0 °F 30.2 °F 70% 30.60 in - SSE 9.2 mph - N/A   Clear
11:00 PM 38 °F - 30 °F 64% 30.61 in - SSE 11.2 mph - -  
11:50 PM 37.4 °F 29.8 °F 30.2 °F 75% 30.60 in - SSE 11.5 mph - N/A   Clear